Regional Weather Roundup
Issued by NWS Kansas City/Pleasant Hill, MO

Home | Current Version | Previous Version | Graphics & Text | Print | Product List | Glossary Off
Versions: 1 2 3 4 5 6 7 8 9 10 11 12 13 14 15 16 17 18 19 20 21 22 23 24 25 26 27 28 29 30 31 32 33 34 35 36 37 38 39 40 41 42 43 44 45 46 47 48 49 50

000
ASUS43 KEAX 260910
RWREAX

WEATHER ROUNDUP FOR EASTERN KANSAS AND NORTHWEST MISSOURI
NATIONAL WEATHER SERVICE KANSAS CITY/PLEASANT HILL MO
400 AM CDT SAT JUL 26 2014

KSZ040-057-103>105-MOZ028-029-037-043-261000-
...KANSAS CITY METROPOLITAN AREA...

CITY           SKY/WX    TMP DP  RH WIND       PRES   REMARKS
K.C. INTL      CLEAR     79  71  76 SW15      29.80S
K.C. DOWNTOWN  CLEAR     83  71  67 SW17G25   29.79S
LEES SUMMIT    CLEAR     79  71  76 SW13G21   29.83S
OLATHE - IXD   CLEAR     80  71  74 SW17G28   29.83S
OLATHE - OJC   CLEAR     80  71  74 SW10      29.82S
LAWRENCE       CLEAR     82  70  66 SW9       29.80S

$$

MOZ001>008-011>017-020>025-030>033-038>040-044>046-053-054-261000-
...NORTHERN AND CENTRAL MISSOURI...

CITY           SKY/WX    TMP DP  RH WIND       PRES   REMARKS
ST. JOSEPH     PTCLDY    74  72  93 N3        29.80R
MOSBY          SUNNY     79  72  78 S3        29.80S
WHITEMAN AFB   CLEAR     77  64  63 SW12      29.83S
CLINTON        CLEAR     79  73  83 SW8       29.85S
SEDALIA        CLEAR     79  71  76 SW15G23   29.84S
WARSAW         NOT AVBL
MARSHALL       CLEAR     79  73  83 SW9       29.83R
CHILLICOTHE      N/A     76  72  87 CALM      29.81R
MOBERLY        CLEAR     75  68  78 S6        29.83S
KIRKSVILLE     CLEAR     75  71  87 SW7       29.81S

$$

MOZ041-047>049-056>058-063>065-088>090-097-261000-
...EASTERN AND SOUTHERN MISSOURI...

CITY           SKY/WX    TMP DP  RH WIND       PRES   REMARKS
ST. LOUIS INTL MOCLDY    73  65  75 S6        29.89F
SPIRIT OF STL  MOCLDY    74  67  78 CALM      29.87S
COLUMBIA       CLEAR     74  71  91 S8        29.86S
JEFFERSON CITY PTCLDY    75  70  84 SE6       29.85S
MEXICO         PTCLDY    75  75 100 S9        29.84S
HANNIBAL       CLEAR     73  68  83 S9        29.83S
ROLLA          PTCLDY    72  69  90 S13       29.89S
LEBANON        MOCLDY    75  70  83 S8        29.93R
OSAGE BEACH    PTCLDY    73  70  88 S7        29.88S
SPRINGFIELD    PTCLDY    73  71  93 S12       29.92S
BRANSON        CLEAR     72  70  94 CALM      29.96R
JOPLIN         CLEAR     77  71  82 SW14      29.90R
WEST PLAINS    CLEAR     70  68  93 SW5       29.97F

$$

IAZ060-094-KSZ022-034>040-054-083-096-NEZ052-066-093-261000-
...KANSAS...SOUTHEAST NEBRASKA AND IOWA...

CITY           SKY/WX    TMP DP  RH WIND       PRES   REMARKS
TOPEKA         PTCLDY    84  71  65 SW12G18   29.79S
MANHATTAN      MOCLDY    83  67  58 SW13      29.77F
EMPORIA        MOCLDY    82  66  58 SW16      29.84R
CHANUTE        CLEAR     77  72  84 S12       29.87R
WICHITA        PTCLDY    77  65  66 S8        29.86S
OMAHA          MOCLDY    73  70  90 N7        29.81R
LINCOLN        CLOUDY    78  75  90 NE6       29.81R FOG
FALLS CITY     PTCLDY    77  71  82 CALM      29.79R
LAMONI         CLEAR     73  71  93 W3        29.80R
DES MOINES     PTCLDY    71  68  90 NE6       29.78F

$$




USA.gov is the U.S. government's official web portal to all federal, state and local government web resources and services.